Flag for Indonesia Weather past 2 weeks in Yogyakarta, Special Region of Yogyakarta, Indonesia

77 °F

Passing clouds.

Feels Like: 78 °F
Forecast: 75 / 90 °F
Wind: 2 mph from North

Location: Juanda International Airport

Current Time: Nov 27, 2015 at 6:14:53 AM

Latest Report: Nov 27, 2015 at 5:00 AM

Visibility: 3 mi

Pressure: 29.80 "Hg

Humidity: 89%

Dew point: 73 °F

Location of YogyakartaLocation

Historic Weather in Yogyakarta — Graph


Yogyakarta temperature yesterday

Maximum temperature yesterday: 93 °F (at 12:00 PM)
Minimum temperature yesterday: 77 °F (at 12:00 AM)
Average temperature yesterday: 85 °F

Past Weeks' High & Low Weather Summary

High97 °F (Nov 24, 1:30 PM)100% (Nov 26, 6:30 AM)29.89 "Hg (Nov 26, 6:30 AM)
Low75 °F (Nov 27, 1:00 AM)32% (Nov 23, 12:30 PM)29.65 "Hg (Nov 25, 3:00 PM)
Average86 °F64%29.78 "Hg
* Reported Nov 12 4:00 AM — Nov 27 4:00 AM, Yogyakarta, Weather by CustomWeather, © 2015

Note: Actual official high and low records may vary slightly from our data, if they occured in-between our weather recording intervals... More about our weather records


Yogyakarta weather history for previous 24 hours

Time TempWeatherWind HumidityBarometerVisibility
4:00 AM
Fri, Nov 27
75 °FPassing clouds.No wind94%29.77 "Hg4 mi
3:30 AM75 °FPassing clouds.2 mph94%29.77 "Hg4 mi
3:00 AM75 °FPassing clouds.6 mph94%29.77 "Hg4 mi
2:30 AM77 °FPassing clouds.7 mph94%29.80 "Hg4 mi
2:00 AM77 °FThunderstorms. Passing clouds.5 mph89%29.80 "Hg2 mi
1:30 AM75 °FThunderstorms. Passing clouds.3 mph94%29.80 "Hg2 mi
1:00 AM75 °FThunderstorms. Partly cloudy.8 mph94%29.80 "Hg2 mi
12:00 AM81 °FLight rain. Passing clouds.6 mph79%29.80 "Hg2 mi
11:30 PM
Thu, Nov 26
84 °FPassing clouds.5 mph74%29.80 "Hg4 mi
11:00 PM82 °FThundershowers. Partly cloudy.5 mph74%29.80 "Hg4 mi
10:30 PM84 °FThundershowers. Passing clouds.2 mph70%29.80 "Hg4 mi
10:00 PM84 °FThunderstorms. Passing clouds.1 mph70%29.80 "Hg4 mi
9:30 PM84 °FPassing clouds.3 mph70%29.80 "Hg4 mi
9:00 PM84 °FThundershowers. Passing clouds.5 mph70%29.80 "Hg5 mi
8:30 PM84 °FPassing clouds.No wind66%29.80 "Hg5 mi
8:00 PM86 °FPassing clouds.3 mph66%29.80 "Hg5 mi
7:30 PM86 °FPassing clouds.2 mph62%29.77 "Hg5 mi
7:00 PM84 °FPassing clouds.2 mph66%29.77 "Hg5 mi
6:30 PM86 °FPassing clouds.3 mph62%29.74 "Hg6 mi
6:00 PM86 °FPassing clouds.5 mph59%29.74 "Hg6 mi
5:30 PM86 °FPassing clouds.7 mph59%29.71 "HgN/A
5:00 PM86 °FPassing clouds.10 mph59%29.71 "HgN/A
4:30 PM88 °FPassing clouds.13 mph55%29.68 "HgN/A
4:00 PM88 °FPassing clouds.10 mph52%29.71 "HgN/A
3:30 PM88 °FPassing clouds.10 mph55%29.68 "HgN/A
3:00 PM88 °FPassing clouds.10 mph55%29.68 "HgN/A
2:30 PM88 °FScattered clouds.16 mph59%29.68 "HgN/A
2:00 PM91 °FScattered clouds.18 mph56%29.71 "HgN/A
1:00 PM93 °FScattered clouds.10 mph49%29.74 "HgN/A
12:30 PM93 °FScattered clouds.9 mph49%29.74 "HgN/A
12:00 PM93 °FScattered clouds.7 mph53%29.74 "HgN/A
11:30 AM91 °FScattered clouds.9 mph52%29.77 "HgN/A
10:30 AM91 °FPassing clouds.7 mph56%29.80 "HgN/A
10:00 AM90 °FPassing clouds.3 mph55%29.80 "HgN/A
9:30 AM88 °FPassing clouds.5 mph59%29.83 "HgN/A
9:00 AM90 °FPassing clouds.6 mph63%29.83 "Hg5 mi
8:00 AM84 °FHaze.5 mph70%29.83 "Hg3 mi
7:00 AM79 °FHaze.3 mph100%29.80 "Hg2 mi
6:30 AM77 °FFog.5 mph100%29.80 "Hg1 mi
6:00 AM77 °FHaze.5 mph94%29.80 "Hg1 mi
Weather by CustomWeather, © 2015

See weather overviewHow to use our weather pages